User: anonymous   Login
Location: Unspecified
(0.0000°N, 0.0000°E)
Time: 21:31:52
(UTC+00:00)
Language:

UKube-1 - Orbit

View from above orbital plane
View from above orbital plane
View from above satellite
View from above satellite

Ground track
Ground track

The orbit is defined by the following mean orbital elements,

1 40074U          26144.96032345 +.00000000 +00000-0 +45120-3 0 00002
2 40074  98.4238 145.8004 0000813 154.4681 205.6588 15.13112130    06
Epoch (UTC): 24 May 2026 23:02:51
Eccentricity: 0.0000813
inclination: 98.4238°
perigee height: 526 km
apogee height: 527 km
right ascension of ascending node: 145.8004°
argument of perigee: 154.4681°
revolutions per day: 15.13112130
mean anomaly at epoch: 205.6588°

The dashed part of the orbit path shows where the satellite is in the earth's shadow,  

DLR